TimeEDT,TemperatureF,Dew PointF,Humidity,Sea Level PressureIn,VisibilityMPH,Wind Direction,Wind SpeedMPH,Gust SpeedMPH,PrecipitationIn,Events,Conditions,WindDirDegrees,DateUTC
12:55 AM,45.1,38.3,77,29.93,10.0,WNW,11.5,-,N/A,,Clear,300,2012-10-29 04:55:00
1:55 AM,43.9,37.8,79,29.93,10.0,NW,10.4,-,N/A,,Clear,310,2012-10-29 05:55:00
2:55 AM,44.2,36.0,73,29.92,10.0,NW,11.5,-,N/A,,Clear,310,2012-10-29 06:55:00
3:55 AM,45.0,34.9,68,29.92,10.0,NW,12.7,-,N/A,,Clear,320,2012-10-29 07:55:00
4:55 AM,43.5,33.6,68,29.92,10.0,NW,11.5,-,N/A,,Clear,310,2012-10-29 08:55:00
5:55 AM,42.3,33.1,70,29.93,10.0,NW,11.5,-,N/A,,Clear,310,2012-10-29 09:55:00
6:55 AM,41.4,32.7,71,29.94,10.0,NW,10.4,-,N/A,,Clear,310,2012-10-29 10:55:00
7:55 AM,39.9,33.4,78,29.96,10.0,NW,9.2,-,N/A,,Clear,310,2012-10-29 11:55:00
8:55 AM,42.8,34.3,72,29.97,10.0,NW,15.0,-,N/A,,Clear,310,2012-10-29 12:55:00
9:55 AM,47.8,34.5,60,29.97,10.0,NW,17.3,-,N/A,,Clear,310,2012-10-29 13:55:00
10:55 AM,52.0,34.2,51,29.96,10.0,NNW,21.9,27.6,N/A,,Clear,330,2012-10-29 14:55:00
11:55 AM,55.4,33.4,43,29.95,10.0,NNW,17.3,-,N/A,,Clear,330,2012-10-29 15:55:00
12:55 PM,58.1,30.6,35,29.93,10.0,NW,17.3,25.3,N/A,,Clear,320,2012-10-29 16:55:00
1:55 PM,60.3,29.8,32,29.90,10.0,WNW,19.6,25.3,N/A,,Clear,300,2012-10-29 17:55:00
2:55 PM,60.8,27.5,28,29.87,10.0,NW,15.0,26.5,N/A,,Clear,320,2012-10-29 18:55:00
3:55 PM,61.3,28.2,29,29.86,10.0,NW,23.0,28.8,N/A,,Clear,310,2012-10-29 19:55:00
4:55 PM,59.7,26.4,28,29.85,10.0,NW,23.0,32.2,N/A,,Clear,320,2012-10-29 20:55:00
5:55 PM,57.7,24.8,28,29.84,10.0,NNW,20.7,27.6,N/A,,Clear,330,2012-10-29 21:55:00
6:55 PM,54.1,24.3,31,29.86,10.0,NW,17.3,24.2,N/A,,Clear,320,2012-10-29 22:55:00
7:55 PM,51.6,25.3,36,29.87,10.0,NW,16.1,23.0,N/A,,Clear,320,2012-10-29 23:55:00
8:55 PM,49.5,26.1,40,29.88,10.0,NW,10.4,-,N/A,,Clear,310,2012-10-30 00:55:00
9:55 PM,44.8,27.3,50,29.89,10.0,NW,9.2,-,N/A,,Clear,310,2012-10-30 01:55:00
10:55 PM,44.6,27.0,50,29.89,10.0,WNW,10.4,-,N/A,,Clear,300,2012-10-30 02:55:00
11:55 PM,45.3,25.5,46,29.88,10.0,WNW,9.2,-,N/A,,Clear,290,2012-10-30 03:55:00